Weather History for Land O' Lakes, WI

Change the Weather History Date:

Wednesday, August 28, 2013

  Actual Average (KEGV) Record (KEGV)
Temperature  
Mean Temperature 72 °F -  
Max Temperature 84 °F 75 °F 88 °F (1991)
Min Temperature 61 °F 53 °F 39 °F (2014)
Cooling Degree Days 8    
Growing Degree Days 22 (Base 50)    
Moisture  
Dew Point 64 °F    
Average Humidity 82    
Maximum Humidity 100    
Minimum Humidity 43    
Precipitation  
Precipitation 0.00 in - - ()
Sea Level Pressure  
Sea Level Pressure 30.06 in    
Wind  
Wind Speed 1 mph (East)    
Max Wind Speed 6 mph    
Max Gust Speed -    
Visibility 6 miles    
Events Fog    
Averages and records for this station are not official NWS values.
T = Trace of Precipitation, MM = Missing Value Source: NWS Daily Summary

Daily Weather History Graph

Daily Weather History Graph

Search for Another Location

Airport:

Trip Planner

Search our weather history database for the weather conditions in past years. The results will help you decide how hot, cold, wet, or windy it might be!

Date:

Astronomy

Aug. 28, 2013 Rise Set
Actual Time 6:12 AM CDT 7:42 PM CDT
Civil Twilight 5:41 AM CDT 8:13 PM CDT
Nautical Twilight 5:03 AM CDT 8:51 PM CDT
Astronomical Twilight 4:22 AM CDT 9:32 PM CDT
Moon 11:55 PM CDT (8/28) 2:29 PM CDT (8/28)
Length of Visible Light 14h 32m
Length of Day
13h 29m
Waning Gibbous, 47% of the Moon is Illuminated
Aug 28
Waning Gibbous
Sep 5
New
Sep 12
First Quarter
Sep 19
Full
Sep 26
Last Quarter

Hourly Weather History & Observations

Time (CDT) Temp. Heat Index Dew Point Humidity Pressure Visibility Wind Dir Wind Speed Gust Speed Precip Events Conditions
12:15 AM 63.1 °F - 62.8 °F 99% 29.97 in 0.5 mi Calm Calm - N/A Fog Fog
12:35 AM 61.7 °F - 61.2 °F 98% 29.97 in 1.0 mi Calm Calm - N/A   Mostly Cloudy
12:55 AM 61.2 °F - 60.8 °F 99% 29.97 in 0.5 mi Calm Calm - N/A Fog Fog
1:15 AM 61.2 °F - 60.8 °F 99% 29.97 in 0.2 mi Calm Calm - N/A Fog Fog
1:35 AM 61.9 °F - 61.7 °F 99% 29.96 in 0.2 mi Calm Calm - N/A Fog Fog
1:55 AM 62.6 °F - 62.4 °F 99% 29.97 in 0.2 mi Calm Calm - N/A Fog Fog
2:15 AM 62.2 °F - 62.1 °F 99% 29.97 in 0.2 mi Calm Calm - N/A Fog Fog
2:35 AM 62.6 °F - 62.6 °F 100% 29.97 in 0.2 mi Calm Calm - N/A Fog Fog
2:55 AM 62.8 °F - 62.8 °F 100% 29.99 in 0.2 mi Calm Calm - N/A Fog Fog
3:15 AM 61.7 °F - 61.7 °F 100% 30.00 in 0.2 mi Calm Calm - N/A Fog Fog
3:35 AM 61.3 °F - 61.3 °F 100% 30.01 in 0.2 mi Calm Calm - N/A Fog Fog
3:55 AM 64.2 °F - 64.2 °F 100% 30.01 in 0.2 mi NNE 3.5 mph - N/A Fog Fog
4:15 AM 64.0 °F - 64.0 °F 100% 30.01 in 0.2 mi Calm Calm - N/A Fog Fog
4:35 AM 63.5 °F - 63.5 °F 100% 30.02 in 0.2 mi NE 3.5 mph - N/A Fog Fog
4:55 AM 63.5 °F - 63.5 °F 100% 30.02 in 0.2 mi Calm Calm - N/A Fog Fog
5:15 AM 63.1 °F - 63.1 °F 100% 30.02 in 0.2 mi Calm Calm - N/A Fog Fog
5:35 AM 62.8 °F - 62.8 °F 100% 30.03 in 0.2 mi Calm Calm - N/A Fog Fog
5:55 AM 62.2 °F - 62.2 °F 100% 30.04 in 0.2 mi Calm Calm - N/A Fog Fog
6:15 AM 61.9 °F - 61.9 °F 100% 30.05 in 0.2 mi Calm Calm - N/A Fog Fog
6:35 AM 61.7 °F - 61.7 °F 100% 30.05 in 0.2 mi Calm Calm - N/A Fog Fog
6:55 AM 61.7 °F - 61.7 °F 100% 30.05 in 0.2 mi Calm Calm - N/A Fog Fog
7:15 AM 61.3 °F - 61.3 °F 100% 30.05 in 0.2 mi Calm Calm - N/A Fog Fog
7:35 AM 62.2 °F - 62.2 °F 100% 30.06 in 1.0 mi Calm Calm - N/A   Overcast
7:55 AM 63.1 °F - 63.1 °F 100% 30.06 in 7.0 mi Calm Calm - N/A   Scattered Clouds
8:15 AM 63.9 °F - 63.9 °F 100% 30.06 in 10.0 mi Calm Calm - N/A   Clear
8:35 AM 64.9 °F - 64.9 °F 100% 30.06 in 10.0 mi Calm Calm - N/A   Clear
8:55 AM 66.2 °F - 66.2 °F 100% 30.07 in 10.0 mi Calm Calm - N/A   Clear
9:15 AM 68.4 °F - 68.2 °F 99% 30.07 in 10.0 mi East 3.5 mph - N/A   Clear
9:35 AM 71.8 °F - 64.2 °F 77% 30.07 in 10.0 mi SE 3.5 mph - N/A   Clear
9:55 AM 73.2 °F - 63.9 °F 72% 30.08 in 10.0 mi Calm Calm - N/A   Clear
10:15 AM 74.5 °F - 63.1 °F 68% 30.09 in 10.0 mi Calm Calm - N/A   Clear
10:35 AM 75.9 °F - 62.8 °F 64% 30.09 in 10.0 mi SSE 3.5 mph - N/A   Clear
10:55 AM 76.1 °F - 62.4 °F 62% 30.10 in 10.0 mi East 4.6 mph - N/A   Clear
11:15 AM 77.9 °F - 62.6 °F 59% 30.10 in 10.0 mi NE 4.6 mph - N/A   Clear
11:35 AM 78.6 °F - 62.6 °F 58% 30.10 in 10.0 mi Calm Calm - N/A   Clear
11:55 AM 79.0 °F - 62.8 °F 57% 30.10 in 10.0 mi SE 4.6 mph - N/A   Clear
12:15 PM 80.1 °F 81.4 °F 62.4 °F 55% 30.10 in 10.0 mi ESE 4.6 mph - N/A   Clear
12:35 PM 80.2 °F 81.5 °F 62.8 °F 55% 30.09 in 10.0 mi Calm Calm - N/A   Clear
12:55 PM 81.1 °F 81.6 °F 59.9 °F 48% 30.09 in 10.0 mi SE 3.5 mph - N/A   Clear
1:15 PM 81.0 °F 81.7 °F 61.0 °F 50% 30.09 in 10.0 mi NE 4.6 mph - N/A   Clear
1:35 PM 81.5 °F 82.4 °F 61.5 °F 51% 30.08 in 10.0 mi ENE 4.6 mph - N/A   Clear
1:55 PM 82.4 °F 82.9 °F 61.2 °F 48% 30.08 in 10.0 mi NE 5.8 mph - N/A   Clear
2:15 PM 82.4 °F 83.0 °F 61.3 °F 49% 30.08 in 10.0 mi SE 4.6 mph - N/A   Clear
2:35 PM 82.9 °F 83.3 °F 60.8 °F 47% 30.08 in 10.0 mi Calm Calm - N/A   Clear
2:55 PM 83.8 °F 84.1 °F 61.2 °F 46% 30.08 in 10.0 mi SE 3.5 mph - N/A   Clear
3:15 PM 83.3 °F 83.5 °F 60.3 °F 46% 30.07 in 10.0 mi ENE 4.6 mph - N/A   Clear
3:35 PM 83.8 °F 84.0 °F 60.4 °F 45% 30.07 in 10.0 mi East 5.8 mph - N/A   Clear
3:55 PM 84.0 °F 84.0 °F 59.9 °F 44% 30.07 in 10.0 mi East 3.5 mph - N/A   Clear
4:15 PM 83.3 °F 83.2 °F 59.5 °F 44% 30.08 in 10.0 mi Calm Calm - N/A   Clear
4:35 PM 83.3 °F 83.1 °F 58.8 °F 43% 30.07 in 10.0 mi East 3.5 mph - N/A   Clear
4:55 PM 83.3 °F 83.4 °F 59.7 °F 45% 30.08 in 10.0 mi Calm Calm - N/A   Clear
5:15 PM 80.8 °F 82.1 °F 63.1 °F 55% 30.08 in 10.0 mi Calm Calm - N/A   Clear
5:35 PM 80.4 °F 81.7 °F 63.1 °F 55% 30.09 in 10.0 mi Calm Calm - N/A   Clear
5:55 PM 78.4 °F - 67.5 °F 69% 30.09 in 10.0 mi Calm Calm - N/A   Clear
6:15 PM 76.5 °F - 69.6 °F 79% 30.08 in 10.0 mi Calm Calm - N/A   Clear
6:35 PM 75.6 °F - 69.6 °F 82% 30.08 in 10.0 mi Calm Calm - N/A   Clear
6:55 PM 74.3 °F - 69.1 °F 84% 30.09 in 10.0 mi Calm Calm - N/A   Clear
7:15 PM 73.0 °F - 70.0 °F 90% 30.08 in 10.0 mi Calm Calm - N/A   Clear
7:35 PM 71.6 °F - 68.9 °F 91% 30.09 in 10.0 mi Calm Calm - N/A   Clear
7:55 PM 70.2 °F - 68.2 °F 93% 30.09 in 10.0 mi Calm Calm - N/A   Clear
8:15 PM 69.4 °F - 67.6 °F 94% 30.10 in 10.0 mi Calm Calm - N/A   Clear
8:35 PM 69.8 °F - 67.8 °F 93% 30.10 in 10.0 mi Calm Calm - N/A   Clear
8:55 PM 68.0 °F - 66.7 °F 96% 30.10 in 7.0 mi Calm Calm - N/A   Clear
9:15 PM 68.2 °F - 66.6 °F 95% 30.10 in 10.0 mi Calm Calm - N/A   Clear
9:35 PM 68.4 °F - 67.3 °F 96% 30.10 in 10.0 mi Calm Calm - N/A   Clear
9:55 PM 67.1 °F - 66.0 °F 96% 30.10 in 7.0 mi Calm Calm - N/A   Clear
10:15 PM 67.8 °F - 66.7 °F 96% 30.10 in 7.0 mi Calm Calm - N/A   Clear
10:35 PM 67.1 °F - 66.2 °F 97% 30.11 in 7.0 mi Calm Calm - N/A   Clear
10:55 PM 67.1 °F - 65.8 °F 96% 30.10 in 7.0 mi Calm Calm - N/A   Clear
11:15 PM 66.4 °F - 65.3 °F 96% 30.10 in 10.0 mi Calm Calm - N/A   Clear
11:35 PM 65.7 °F - 64.9 °F 98% 30.10 in 4.0 mi Calm Calm - N/A   Clear
11:55 PM 64.9 °F - 64.4 °F 98% 30.10 in 7.0 mi Calm Calm - N/A   Clear